Location: Observatory
(52.1446°N, 0.4624°W)
Time: 15:52:45
(UTC+01:00)

ISS - Pass Details

Date: 09 January 2018
Orbit: 402 x 409 km, 51.6° (Epoch: 17 August)

Event Time Altitude Azimuth Distance (km) Brightness Sun altitude
Exits shadow 05:04:05 24° 98° (E) 916 -1.4 -27.1°
Drops below altitude 10° 05:05:35 10° 97° (E) 1,510 0.1 -26.9°
Enters shadow 06:00:55 -70° 288° (WNW) 12,414 3.7 -18.5°
